Theta_e
298 298 299 302 308 310 311 311 310 306 304 302 300 299 300 305 305 305 305 305 306 310 308 307 306 308 308 309 313 310 312 311 311 315 315 316 315 315 315 315 318 318 320 319 318 319 318 314 320 323 324 325 325 324
297 297 298 300 307 309 310 311 310 305 303 302 301 299 300 304 305 305 305 305 305 308 308 303 304 305 306 307 309 307 311 311 310 313 311 311 313 312 314 316 313 316 317 317 320 318 316 316 323 325 323 323 323 322
297 297 297 299 303 309 310 310 309 304 303 302 301 299 301 303 304 303 305 305 305 306 306 305 307 304 304 305 306 310 307 309 311 307 310 310 314 312 315 314 315 313 310 314 315 315 315 315 318 320 317 317 316 317
298 297 298 302 305 308 310 309 308 304 303 301 301 300 301 301 302 303 304 304 304 302 308 308 303 304 303 303 304 304 306 304 306 306 310 311 312 309 311 311 312 311 310 311 312 311 311 311 310 310 309 308 307 306
296 296 298 301 306 308 309 308 307 304 302 301 300 301 301 301 300 302 303 303 303 305 309 307 303 303 301 302 303 303 305 307 306 308 309 310 308 308 306 306 310 309 311 311 314 313 312 311 310 309 308 308 307 306
296 297 299 301 302 307 309 308 306 303 302 301 301 301 301 300 299 300 302 301 301 302 306 309 303 303 301 303 303 304 304 304 305 306 305 305 304 307 308 308 308 308 307 308 310 309 307 306 306 306 306 306 306 306
298 298 299 300 303 308 308 308 305 303 302 302 302 301 301 301 301 302 304 301 300 301 303 306 304 302 301 302 302 304 302 303 304 305 305 304 305 305 305 304 305 305 306 306 305 303 304 305 305 305 305 305 305 305
301 300 301 302 305 308 308 307 304 302 302 302 302 301 300 300 302 301 301 299 299 300 301 303 303 303 300 304 305 301 305 304 304 305 304 306 304 304 305 305 305 305 305 304 304 304 304 304 304 305 305 305 306 306
302 303 305 307 308 308 307 305 303 303 302 302 300 298 298 299 300 300 298 299 300 299 302 301 303 304 301 301 302 303 303 305 302 305 305 305 305 305 306 306 306 305 305 305 305 305 305 306 307 306 306 306 306 307
306 308 309 309 309 307 305 304 303 303 301 297 297 298 299 299 300 300 299 300 299 300 300 301 300 303 300 301 303 304 303 305 305 305 302 304 305 306 306 306 305 305 305 304 304 307 308 308 307 307 307 307 307 307
309 309 309 309 307 305 304 303 302 299 297 298 301 303 301 300 299 301 302 300 300 300 299 299 299 298 299 301 302 299 301 301 303 304 305 305 305 305 305 304 305 304 304 304 306 308 308 308 307 307 306 305 305 305
309 309 308 306 305 303 303 301 298 298 299 301 301 300 299 300 301 302 302 302 301 302 301 303 302 301 301 301 305 303 305 303 302 302 303 303 304 305 303 305 306 307 307 308 307 307 307 306 306 306 306 305 305 305
305 304 304 303 302 300 298 298 301 301 300 299 300 300 301 300 301 301 302 304 304 303 302 302 305 303 304 302 305 305 305 304 303 304 304 303 306 304 304 305 307 307 306 306 307 306 306 306 305 305 306 305 305 305
298 298 298 298 298 298 298 300 300 299 301 302 302 301 301 302 301 301 303 304 302 302 303 303 304 306 303 306 304 304 303 303 303 303 302 305 307 304 304 306 306 306 306 305 305 304 304 304 305 304 304 304 304 304
296 297 297 297 298 299 300 299 300 299 299 301 300 301 301 299 299 299 299 299 299 301 303 304 303 304 305 305 304 304 304 304 303 303 307 307 305 305 305 305 305 305 305 304 304 304 304 304 303 304 303 303 303 302
297 297 297 296 297 298 298 298 298 299 299 301 300 300 297 299 298 298 299 300 299 302 302 304 305 305 305 305 304 305 304 304 305 306 307 304 304 304 305 304 304 303 303 303 304 304 303 303 303 302 302 302 303 303
295 297 296 296 296 296 297 297 298 300 299 300 300 298 298 300 300 300 299 300 299 303 305 305 305 303 304 306 305 305 304 304 304 304 303 304 304 304 303 303 303 303 303 304 303 302 302 302 302 303 303 304 304 304
296 296 296 296 297 298 298 298 299 300 300 299 300 299 297 297 299 301 301 299 302 303 303 305 303 305 305 305 304 304 304 303 303 303 304 304 304 302 302 303 302 302 304 303 303 303 303 303 304 304 304 305 305 305
295 296 296 297 297 298 298 298 297 297 298 297 296 296 297 298 297 297 301 301 301 301 303 304 305 306 306 304 304 303 303 303 303 302 301 301 301 302 302 302 302 303 304 304 304 304 304 304 304 304 304 304 305 305
295 295 294 294 296 298 299 298 296 298 299 298 298 300 301 301 300 301 302 303 303 304 305 306 305 304 303 303 303 303 302 301 301 301 301 301 301 302 302 302 303 303 303 303 304 304 304 304 304 305 305 305 306 307
297 296 297 296 295 296 298 299 300 300 300 302 300 300 301 301 302 303 304 303 302 302 304 303 303 303 302 302 301 301 301 300 300 300 301 301 301 301 302 302 302 303 303 303 304 304 304 305 305 305 306 307 308 309
298 298 298 298 299 298 299 298 299 298 300 300 301 302 304 303 304 304 303 303 303 303 303 303 303 302 302 302 301 301 301 301 301 301 301 301 302 303 303 304 305 305 306 306 305 305 306 306 307 307 309 308 306 305
299 298 299 298 299 297 299 298 299 299 300 300 300 303 303 304 304 303 304 302 302 302 303 302 301 301 301 301 301 301 302 302 303 304 304 304 305 305 305 306 306 307 308 307 306 306 308 309 309 307 306 306 305 305
298 298 298 298 298 299 298 299 299 298 298 300 302 303 304 304 303 303 302 301 302 302 302 301 301 301 301 302 303 303 303 303 303 304 305 306 307 307 308 309 309 310 309 308 308 309 309 309 308 307 306 305 305 304
296 297 298 298 298 300 300 300 301 301 304 304 304 304 305 304 304 303 302 303 303 303 302 301 300 301 302 302 303 303 303 303 304 305 305 306 308 309 309 312 312 312 310 310 309 308 309 309 308 306 305 305 305 304
301 300 299 301 301 302 303 305 305 306 306 305 305 304 304 305 304 303 302 303 303 302 300 300 300 301 301 302 302 303 303 304 305 306 307 309 310 310 312 313 313 311 310 309 308 308 308 307 305 304 304 303 303 303
300 302 301 300 302 303 304 304 304 305 306 307 306 305 303 303 303 302 302 302 302 300 300 300 300 300 301 302 302 303 304 306 307 309 311 311 310 310 311 313 311 310 309 309 308 308 308 308 306 305 303 303 304 304
300 300 305 304 304 304 306 306 305 306 306 304 303 304 303 303 304 302 301 301 300 300 300 300 301 301 302 302 303 304 305 306 307 310 310 310 311 311 311 310 310 309 309 308 308 308 308 307 305 303 302 303 303 301
301 301 302 305 305 306 305 307 306 306 305 304 304 304 303 302 302 301 300 300 300 300 301 301 302 302 303 303 304 304 304 305 305 308 310 310 310 310 310 310 308 307 308 308 308 308 308 306 304 303 302 301 300 299
303 302 305 307 309 309 307 306 306 305 304 303 303 303 303 303 301 300 300 300 300 299 299 299 300 301 302 303 303 303 304 303 303 303 306 309 310 310 309 308 308 308 308 308 308 307 306 303 302 301 301 300 299 298
305 305 308 309 308 306 305 305 305 305 306 305 303 304 304 304 302 301 300 300 299 299 300 300 300 300 301 302 302 302 303 305 306 307 307 309 310 309 308 307 308 308 308 309 309 308 307 305 304 302 301 300 299 299
309 308 309 308 307 305 306 307 308 308 307 307 306 304 304 303 303 301 300 299 300 300 299 299 299 299 301 302 303 303 304 305 305 307 308 307 307 307 307 308 308 308 308 308 308 307 307 306 304 303 302 301 300 298
309 308 307 307 308 308 307 308 308 307 307 307 306 305 304 302 303 301 299 299 298 299 299 298 299 302 302 302 302 303 306 307 307 307 309 308 307 308 308 307 307 308 308 307 307 306 306 306 304 303 302 301 300 298
Wind_Speed
23 22 21 27 24 37 35 35 29 24 23 19 17 14 10 8 7 7 4 3 2 1 2 3 3 3 3 2 2 2 3 2 2 4 4 4 5 5 4 2 4 7 5 4 3 6 9 2 2 5 3 1 3 3
25 22 22 25 27 31 39 35 30 25 24 20 18 16 11 9 8 8 3 6 4 0 2 3 5 5 1 2 2 2 1 1 2 2 2 2 3 3 3 4 2 5 5 3 7 2 1 2 3 0 0 2 2 3
22 22 23 24 33 32 36 34 32 26 25 21 19 16 12 9 8 7 7 9 4 1 1 2 4 4 8 15 12 3 2 2 3 1 2 1 4 2 4 5 4 3 3 4 2 3 6 4 3 3 2 1 3 3
22 21 23 22 27 28 34 35 34 28 25 22 21 17 13 10 9 9 6 7 5 4 1 0 2 3 3 5 13 11 4 5 5 1 1 2 3 2 3 2 4 2 5 4 4 5 3 6 6 4 3 1 4 8
21 22 24 23 25 24 34 36 35 29 26 23 22 19 15 12 9 9 8 6 4 0 1 2 7 1 3 7 10 12 9 4 2 3 2 3 1 3 1 2 6 6 10 9 13 9 8 7 8 9 9 8 10 13
24 23 23 29 27 24 32 37 35 31 27 25 23 20 16 13 14 6 2 1 3 4 1 2 3 2 5 3 8 12 9 3 2 3 2 2 1 3 3 4 7 7 9 9 12 8 7 8 6 8 9 12 12 11
23 25 25 26 32 27 35 40 37 33 28 26 24 21 16 15 10 5 2 1 4 4 1 2 1 2 3 3 2 3 2 2 1 3 3 2 2 3 3 9 5 9 9 7 6 3 7 9 7 11 12 15 16 16
21 23 26 31 29 30 43 43 40 36 32 27 21 19 15 16 11 5 3 3 5 4 2 2 1 2 4 2 3 1 3 2 2 1 2 3 3 2 5 12 14 13 11 11 12 9 11 12 14 14 18 17 14 14
22 24 26 27 28 34 45 46 42 38 34 28 25 24 16 5 3 5 8 7 5 1 2 2 2 3 3 2 2 2 0 3 1 3 3 4 4 6 11 10 10 12 7 8 8 11 13 12 13 12 10 10 10 11
19 17 22 25 31 41 49 45 42 40 36 36 15 4 3 5 18 12 3 1 1 2 1 2 0 1 1 1 2 2 0 1 3 2 3 4 5 15 15 13 13 13 11 9 11 11 7 7 8 8 10 9 10 13
20 19 22 28 40 48 48 46 47 46 32 5 4 2 9 19 3 1 2 2 1 2 2 1 3 1 1 1 2 1 1 1 2 2 3 3 4 5 6 8 8 11 12 12 12 10 10 11 11 13 14 17 20 24
21 17 28 41 50 51 52 51 48 18 10 9 16 18 8 2 1 3 2 2 3 2 3 3 2 2 2 1 1 1 1 1 3 2 3 3 5 5 6 7 4 4 5 8 11 12 15 16 18 19 20 24 28 30
43 46 51 52 52 52 50 35 24 30 31 14 5 3 3 1 2 5 7 3 3 4 4 4 3 1 2 1 2 1 2 3 1 3 3 5 4 6 6 5 5 5 8 11 14 17 20 24 27 27 26 31 32 30
51 52 51 47 42 38 32 30 31 20 3 2 3 4 3 3 4 3 3 3 2 3 5 3 3 1 1 1 1 2 1 2 3 4 5 6 5 7 6 5 6 9 12 16 18 26 28 30 28 31 30 30 30 28
35 35 34 30 29 28 28 30 11 0 2 3 2 3 2 2 2 2 1 2 2 4 3 3 3 0 2 1 1 1 3 4 5 4 3 2 2 4 6 9 12 14 16 18 25 23 25 27 27 28 29 27 26 27
27 26 21 21 21 20 16 8 3 1 3 2 2 4 2 3 3 2 2 2 2 4 2 2 3 2 2 2 3 6 3 6 4 4 3 3 6 10 12 13 14 21 23 23 25 22 23 25 22 24 27 27 27 27
12 7 10 11 13 9 3 1 2 3 3 2 2 2 2 4 4 2 1 2 4 3 2 2 4 2 3 3 4 4 5 8 9 8 7 10 13 15 16 17 22 24 23 24 25 25 25 27 26 23 16 25 25 25
14 10 9 9 7 5 3 5 3 2 4 2 3 2 1 1 3 3 2 3 3 2 3 1 2 4 4 4 5 6 7 7 9 11 12 14 16 22 23 17 22 24 24 25 25 26 26 23 17 13 21 22 22 21
15 12 9 6 5 4 3 3 3 2 3 1 1 1 1 1 1 1 1 3 1 1 1 2 3 3 5 5 7 10 11 11 13 14 14 22 24 23 24 25 25 25 25 25 23 18 21 22 21 22 21 20 14 16
9 7 6 5 4 3 2 2 2 2 2 2 0 1 1 1 1 1 2 2 1 1 3 3 4 4 4 9 10 11 11 11 10 14 13 10 17 20 21 21 19 23 24 23 21 21 19 17 19 18 17 18 14 14
6 6 5 3 3 5 2 1 2 2 1 1 1 2 1 1 1 1 1 2 1 2 2 3 5 8 13 17 20 21 18 17 11 11 13 14 19 21 22 24 24 20 15 14 9 13 15 13 18 19 17 15 15 14
3 4 2 3 3 2 3 3 2 1 1 1 0 1 1 1 1 1 2 1 2 1 2 3 6 8 10 12 18 24 27 28 26 24 26 26 12 10 9 17 13 8 12 13 12 10 15 18 19 13 8 9 20 18
3 2 2 3 2 3 2 1 1 1 1 1 1 1 1 1 1 2 1 1 2 4 7 9 13 19 18 26 27 28 26 22 12 16 18 18 20 22 20 21 18 11 7 9 9 10 10 8 15 19 18 19 21 21
4 3 2 2 1 2 1 1 1 1 1 1 1 1 1 1 1 1 1 1 2 4 5 11 14 10 14 16 10 13 22 21 19 21 21 15 8 12 16 16 14 12 10 7 2 10 12 15 17 20 19 20 21 22
1 1 2 2 1 1 2 2 2 2 1 2 1 1 1 2 1 2 1 2 3 6 6 13 12 8 9 9 11 20 27 19 13 10 23 18 15 13 10 7 3 5 11 16 14 16 14 18 21 19 20 21 22 22
2 2 1 1 2 1 2 1 2 2 2 3 3 1 1 2 2 1 1 2 5 6 7 8 9 9 11 15 11 11 24 29 23 10 15 14 12 5 2 1 3 9 17 20 21 18 19 20 22 23 23 21 24 24
1 0 2 1 1 2 2 2 1 0 0 0 3 3 2 1 1 1 2 3 5 15 19 19 17 14 12 20 27 29 30 25 20 14 11 13 11 8 6 7 7 16 23 21 22 21 19 20 21 21 18 19 19 20
2 1 1 4 2 2 1 1 1 1 1 2 2 1 1 1 1 0 2 9 15 19 20 19 17 17 20 22 26 24 27 27 23 19 15 19 19 18 23 28 23 21 21 25 22 24 21 21 23 20 20 21 19 19
2 2 3 3 2 2 3 2 2 1 2 1 2 1 1 1 2 0 4 10 17 13 13 17 22 22 20 22 22 23 22 22 20 15 15 10 8 20 22 21 22 25 26 26 26 23 20 22 23 19 18 19 18 19
2 4 3 2 2 1 1 3 3 3 2 3 3 2 2 2 4 2 8 12 14 13 14 15 17 16 17 19 21 28 24 24 25 15 7 9 13 18 18 16 18 19 26 29 27 23 23 23 22 21 21 19 19 20
3 4 2 1 1 1 2 5 6 4 2 2 1 2 2 1 1 1 6 11 11 10 13 16 18 18 17 19 19 16 12 25 27 24 17 17 12 9 9 14 19 18 17 22 21 17 17 17 18 19 18 19 20 20
4 4 2 2 2 2 3 1 2 2 2 2 2 2 1 1 1 2 7 12 12 14 15 14 16 18 21 20 22 21 18 17 20 22 23 15 12 11 12 14 17 19 19 16 14 14 14 15 17 20 20 20 20 21
2 2 2 2 3 4 3 2 2 2 2 1 2 2 1 1 1 2 4 10 10 12 15 16 15 11 15 16 17 21 24 17 15 17 18 21 12 11 12 12 16 18 16 16 16 15 15 17 17 18 20 20 19 19
Wind_Direction
235 239 239 228 224 223 230 215 208 206 200 198 194 193 192 182 172 167 153 145 115 123 162 197 182 157 142 184 189 115 169 175 123 191 209 190 224 200 209 218 199 225 206 203 193 236 265 72 191 232 5 9 324 348
230 235 240 232 219 220 221 212 200 200 196 195 188 187 183 177 172 171 137 151 133 77 54 214 232 223 194 177 142 167 5 153 143 141 196 145 190 193 203 230 170 237 239 249 219 248 53 259 263 160 28 331 356 317
230 235 238 232 220 213 219 212 194 193 192 190 182 179 176 168 167 178 150 148 128 67 218 266 232 244 246 233 221 222 205 140 162 357 131 117 238 183 220 225 243 224 186 235 227 197 224 211 199 192 183 95 43 5
229 232 226 218 213 212 212 208 189 186 188 185 178 172 166 154 149 151 145 159 116 100 276 205 297 287 244 244 209 204 128 110 103 194 138 182 233 202 227 301 247 255 173 231 245 264 248 231 234 234 211 173 326 315
228 230 220 214 207 212 208 199 182 179 181 180 172 165 158 146 136 137 128 141 162 309 213 290 303 313 334 224 202 187 154 145 161 165 180 215 195 211 177 255 237 217 236 241 258 285 268 274 270 259 241 267 298 303
228 218 215 206 209 210 204 190 176 172 174 175 165 161 151 145 135 114 105 185 159 143 197 259 5 357 356 110 154 172 162 131 140 169 169 196 270 240 238 244 254 249 249 256 271 294 280 286 283 266 268 285 286 279
215 210 208 207 199 204 198 185 170 167 166 164 162 156 154 153 132 97 129 129 156 155 112 271 256 73 1 128 94 127 97 118 167 144 202 214 186 212 242 252 242 241 248 256 262 274 277 255 273 295 287 283 293 287
207 206 198 195 197 200 187 175 166 163 163 165 157 147 139 121 110 100 106 149 150 89 40 262 239 188 9 151 142 359 144 159 130 149 154 205 158 224 251 240 258 274 273 276 271 251 263 288 291 281 280 285 289 286
197 190 191 195 198 191 179 168 163 159 156 152 134 120 105 77 108 137 120 116 112 130 189 220 217 130 2 87 92 121 242 191 85 220 209 186 186 225 237 243 247 250 227 257 283 292 294 287 287 292 295 296 289 292
174 185 184 188 181 176 160 156 151 150 140 127 112 113 117 179 129 118 105 116 54 11 58 232 167 145 331 128 110 165 8 187 228 177 140 220 243 255 258 255 255 255 247 248 262 262 252 275 296 298 297 296 292 293
162 160 172 176 162 154 149 146 144 134 129 144 132 88 123 137 118 50 110 187 150 210 197 170 213 150 77 195 109 339 140 159 248 131 252 213 247 251 266 263 255 244 244 242 232 258 271 273 280 287 287 289 288 289
166 154 155 150 144 141 142 140 134 130 143 146 113 113 117 126 120 159 152 139 205 192 175 186 158 193 116 269 197 140 237 189 253 115 244 248 247 263 277 290 270 241 240 251 255 265 273 273 274 275 281 286 283 284
116 119 124 127 128 130 131 127 123 120 122 102 85 127 171 138 139 188 170 170 190 178 175 170 140 133 146 101 88 201 230 245 316 227 241 261 298 282 298 293 271 262 263 267 271 274 277 282 285 280 284 283 281 283
90 98 103 108 112 120 128 130 128 122 114 108 130 121 199 168 203 185 160 132 136 134 137 128 102 83 69 128 79 244 55 272 250 246 242 264 305 306 315 316 307 304 310 304 296 292 290 288 286 286 284 282 283 279
93 91 95 97 114 125 129 137 136 70 93 106 146 112 160 87 82 125 142 132 110 131 125 113 87 71 81 146 210 289 222 237 232 239 246 237 300 323 322 316 306 298 293 289 289 289 290 292 289 287 284 283 280 276
97 91 87 90 102 116 131 151 163 133 71 79 76 108 91 125 116 122 125 113 137 127 108 77 114 142 199 228 192 218 237 229 238 226 273 287 287 296 297 294 291 292 293 293 292 286 284 282 280 280 283 280 279 275
93 77 119 114 112 111 112 103 63 49 63 73 86 53 84 89 90 97 116 91 151 160 140 151 183 196 128 223 229 218 233 272 302 299 300 293 294 295 297 296 296 296 293 288 287 283 279 279 280 278 273 278 280 278
86 98 108 113 110 93 68 43 68 63 73 60 100 85 59 58 95 101 96 129 167 162 167 179 132 198 228 229 236 254 275 305 302 297 295 294 294 294 293 290 287 285 285 285 280 278 279 279 276 274 277 278 281 279
99 97 101 89 59 65 54 46 31 79 62 53 82 81 28 21 48 81 118 112 89 94 170 201 254 231 240 275 298 309 303 300 295 294 289 288 284 283 283 282 282 282 282 281 283 280 281 279 275 278 278 280 275 280
89 86 80 70 49 75 90 67 58 99 102 66 25 107 9 42 43 108 133 136 152 190 211 227 247 301 301 301 299 291 289 291 288 291 289 284 283 280 276 279 278 279 281 282 281 277 279 281 279 277 269 266 267 270
77 60 57 69 51 55 68 42 83 57 84 110 85 340 86 132 165 157 128 131 117 210 242 258 279 297 298 291 288 286 283 282 276 275 283 290 287 281 280 278 276 272 267 272 275 280 282 270 276 281 279 272 270 273
81 51 71 46 75 65 81 38 74 47 49 53 92 320 150 148 133 130 112 176 236 217 226 270 286 294 293 294 292 289 284 283 282 277 273 272 278 281 280 277 276 269 268 267 271 273 284 290 289 272 305 57 81 81
82 55 54 43 85 54 75 30 83 88 148 90 297 196 158 171 151 145 214 183 260 241 266 296 299 297 288 290 290 287 289 285 282 284 284 281 279 277 276 278 278 267 271 278 270 275 299 24 73 89 91 85 86 81
49 49 61 80 67 110 147 118 106 122 143 186 177 126 123 118 110 94 280 255 252 279 301 307 304 301 302 299 295 295 295 300 292 291 291 284 281 284 285 283 279 279 274 285 348 87 80 82 84 92 86 82 79 78
94 43 126 90 84 126 111 141 165 186 166 169 171 154 193 171 172 168 243 278 310 318 316 314 309 300 300 300 300 304 308 304 293 294 298 295 282 283 298 324 53 82 120 113 103 98 86 83 92 91 90 90 90 88
30 172 139 141 132 180 147 117 175 190 181 176 185 145 179 169 164 210 242 304 318 325 313 308 307 309 309 314 308 310 312 315 309 296 300 313 318 310 297 54 78 75 117 114 111 100 90 92 93 94 93 97 98 99
343 244 205 222 225 178 200 219 227 146 286 122 136 157 187 136 76 288 301 302 323 311 308 307 304 301 305 312 318 326 330 338 340 331 342 13 25 37 74 86 91 105 126 121 118 107 93 90 99 99 88 95 99 98
234 228 207 156 204 238 347 143 145 214 193 130 138 79 74 107 126 250 253 318 327 330 325 324 321 320 319 321 324 331 342 351 357 21 43 40 60 86 95 106 111 120 123 131 124 114 99 101 107 104 98 97 92 94
222 202 195 201 204 188 216 202 152 132 127 140 101 103 126 158 135 287 312 326 348 339 342 344 341 345 342 343 349 355 360 3 358 11 29 36 51 76 99 102 107 109 113 109 114 112 94 101 108 104 100 98 98 99
221 178 203 218 213 194 123 166 122 119 90 87 104 111 122 166 193 311 349 353 349 342 333 326 326 339 344 347 348 353 7 16 19 11 0 31 72 98 91 99 110 116 118 118 117 110 103 102 108 107 101 99 99 96
146 184 249 225 348 74 123 120 110 112 118 92 74 98 110 137 166 298 352 348 346 349 354 352 347 350 353 349 350 348 349 10 23 40 68 85 94 69 73 106 123 126 124 127 129 120 111 107 108 112 111 113 113 113
178 191 201 135 108 116 159 126 127 108 115 122 102 105 140 139 65 358 351 355 358 3 1 356 343 336 358 356 358 3 9 16 24 30 42 58 81 95 109 127 134 136 139 137 130 129 122 115 116 122 123 123 122 121
161 186 190 144 135 174 166 138 128 113 106 113 119 135 133 116 77 11 348 0 355 350 347 342 343 358 11 8 2 10 17 23 37 34 39 47 70 104 123 136 151 156 153 141 146 145 138 131 124 124 123 122 124 125